International Skating Union - Official Site

ISU World Cup Obihiro
November 14-16, 2014

Draw | Lap Times | Index | World Cup

Referee: Jan  BOLT  (NED)
Starter: Tokuro  NAGATA  (JPN)
StartTime: EndTime: Air Temp: Ice Temp: Humidity:
17:31 18:20 17.5℃ -7.6℃ 33%
Result 3000m Ladies Division A
Rankings as of Nov 15 2014 6:06PM
Rank: No.: Name: Nation: Time: Behind: Points:
1 74 Ireen  Wüst NED NED 4:04.91200m - 20.02 - (20.0)
600m - 50.36 - (30.3)
1000m - 1:21.88 - (31.5)
1400m - 1:53.86 - (31.9)
1800m - 2:26.00 - (32.1)
2200m - 2:58.42 - (32.4)
2600m - 3:31.46 - (33.0)
3000m - 4:04.91 - (33.4)
100
2 23 Martina  Sábliková CZE CZE 4:06.11200m - 20.41 - (20.4)
600m - 51.12 - (30.7)
1000m - 1:23.00 - (31.8)
1400m - 1:55.24 - (32.2)
1800m - 2:27.65 - (32.4)
2200m - 3:00.14 - (32.4)
2600m - 3:32.66 - (32.5)
3000m - 4:06.11 - (33.4)
1.20 80
3 72 Jorien  Voorhuis NED NED 4:07.04200m - 20.05 - (20.0)
600m - 51.52 - (31.4)
1000m - 1:23.86 - (32.3)
1400m - 1:56.06 - (32.2)
1800m - 2:28.48 - (32.4)
2200m - 3:01.11 - (32.6)
2600m - 3:33.85 - (32.7)
3000m - 4:07.04 - (33.2)
2.13 70
4 67 Diane  Valkenburg NED NED 4:07.57200m - 20.54 - (20.5)
600m - 51.95 - (31.4)
1000m - 1:23.82 - (31.8)
1400m - 1:56.00 - (32.1)
1800m - 2:28.43 - (32.4)
2200m - 3:00.99 - (32.5)
2600m - 3:33.99 - (33.0)
3000m - 4:07.57 - (33.5)
2.66 60
5 61 Marije  Joling NED NED 4:08.22200m - 20.02 - (20.0)
600m - 51.10 - (31.0)
1000m - 1:23.01 - (31.9)
1400m - 1:55.46 - (32.4)
1800m - 2:28.27 - (32.8)
2200m - 3:01.11 - (32.8)
2600m - 3:34.32 - (33.2)
3000m - 4:08.22 - (33.9)
3.31 50
6 59 Linda  de Vries NED NED 4:09.27200m - 20.11 - (20.1)
600m - 51.64 - (31.5)
1000m - 1:23.88 - (32.2)
1400m - 1:56.64 - (32.7)
1800m - 2:29.18 - (32.5)
2200m - 3:02.02 - (32.8)
2600m - 3:35.16 - (33.1)
3000m - 4:09.27 - (34.1)
4.36 45
7 29 Claudia  Pechstein GER GER 4:11.57200m - 20.72 - (20.7)
600m - 53.19 - (32.4)
1000m - 1:26.40 - (33.2)
1400m - 1:59.28 - (32.8)
1800m - 2:32.27 - (32.9)
2200m - 3:05.38 - (33.1)
2600m - 3:38.59 - (33.2)
3000m - 4:11.57 - (32.9)
6.66 40
8 42 Nana  Takagi JPN JPN 4:11.83200m - 20.50 - (20.5)
600m - 52.32 - (31.8)
1000m - 1:24.91 - (32.5)
1400m - 1:57.67 - (32.7)
1800m - 2:30.86 - (33.1)
2200m - 3:04.18 - (33.3)
2600m - 3:37.95 - (33.7)
3000m - 4:11.83 - (33.8)
6.92 35
9 75 Ida  Njåtun NOR NOR 4:12.99200m - 20.18 - (20.1)
600m - 51.84 - (31.6)
1000m - 1:24.32 - (32.4)
1400m - 1:57.41 - (33.0)
1800m - 2:30.43 - (33.0)
2200m - 3:04.03 - (33.6)
2600m - 3:38.14 - (34.1)
3000m - 4:12.99 - (34.8)
8.08 30
10 28 Bente  Kraus GER GER 4:13.03200m - 21.44 - (21.4)
600m - 54.02 - (32.5)
1000m - 1:26.70 - (32.6)
1400m - 1:59.36 - (32.6)
1800m - 2:32.24 - (32.8)
2200m - 3:05.72 - (33.4)
2600m - 3:39.22 - (33.5)
3000m - 4:13.03 - (33.8)
8.12 25
11 33 Shoko  Fujimura JPN JPN 4:13.56200m - 21.24 - (21.2)
600m - 53.51 - (32.2)
1000m - 1:26.26 - (32.7)
1400m - 1:59.08 - (32.8)
1800m - 2:32.22 - (33.1)
2200m - 3:05.72 - (33.5)
2600m - 3:39.79 - (34.0)
3000m - 4:13.56 - (33.7)
8.65 21
12 85 Olga  Graf RUS RUS 4:14.34200m - 21.38 - (21.3)
600m - 53.89 - (32.5)
1000m - 1:27.13 - (33.2)
1400m - 2:00.35 - (33.2)
1800m - 2:33.42 - (33.0)
2200m - 3:06.80 - (33.3)
2600m - 3:40.36 - (33.5)
3000m - 4:14.34 - (33.9)
9.43 18
13 35 Ayaka  Kikuchi JPN JPN 4:14.73200m - 20.13 - (20.1)
600m - 51.99 - (31.8)
1000m - 1:24.36 - (32.3)
1400m - 1:57.59 - (33.2)
1800m - 2:31.23 - (33.6)
2200m - 3:05.42 - (34.1)
2600m - 3:39.97 - (34.5)
3000m - 4:14.73 - (34.7)
9.82 16
14 40 Maki  Tabata JPN JPN 4:15.27200m - 20.43 - (20.4)
600m - 51.58 - (31.1)
1000m - 1:24.06 - (32.4)
1400m - 1:56.86 - (32.8)
1800m - 2:30.14 - (33.2)
2200m - 3:04.23 - (34.0)
2600m - 3:39.20 - (34.9)
3000m - 4:15.27 - (36.0)
10.36 14
15 80 Luiza  Zlotkowska POL POL 4:15.84200m - 20.37 - (20.3)
600m - 52.38 - (32.0)
1000m - 1:25.46 - (33.0)
1400m - 1:58.07 - (32.6)
1800m - 2:31.27 - (33.2)
2200m - 3:05.14 - (33.8)
2600m - 3:39.97 - (34.8)
3000m - 4:15.84 - (35.8)
10.93 12
16 78 Katarzyna  Wozniak POL POL 4:17.17200m - 20.55 - (20.5)
600m - 52.04 - (31.4)
1000m - 1:24.22 - (32.1)
1400m - 1:56.72 - (32.5)
1800m - 2:30.29 - (33.5)
2200m - 3:04.59 - (34.3)
2600m - 3:39.98 - (35.3)
3000m - 4:17.17 - (37.1)
12.26 10